Regional Weather Roundup
Issued by NWS Sterling, VA

Home | Current Version | Previous Version | Graphics & Text | Print | Product List | Glossary On
Versions: 1 2 3 4 5 6 7 8 9 10 11 12 13 14 15 16 17 18 19 20 21 22 23 24 25 26 27 28 29 30 31 32 33 34 35 36 37 38 39 40 41 42 43 44 45 46 47 48 49 50
000
ASUS41 KLWX 270910
RWRLWX

REGIONAL WEATHER ROUNDUP
NATIONAL WEATHER SERVICE BALTIMORE MD/WASHINGTON DC
500 AM EDT THU APR 27 2017

Note: "FAIR" indicates few or no clouds below 12,000 feet
with no significant weather and/or obstructions to visibility.
 TC=TEMPERATURE CELSIUS

 * =Non NWS site. Station does not report precipitation (e.g. rain,
    snow, etc.), thunder, or fog.

DCZ001-MDZ009-015-VAZ040>042-051-053>054-271000-
WASHINGTON METRO

CITY           SKY/WX    TMP DP  RH WIND       PRES   REMARKS
WASHINGTON NAT PTCLDY    59  58  96 E5        29.82S
DULLES         CLOUDY    55  54  96 CALM      29.81S
ANDREWS AFB    CLEAR     56  56  97 CALM      29.81S
FT BELVOIR     CLEAR     54  53  97 CALM      29.82R
QUANTICO       CLEAR     61  60  97 CALM      29.82R
COLLEGE PARK*  CLEAR     53  52  98 CALM      29.82S
LEESBURG*      CLOUDY    59  59 100 E3        29.83S FOG
MANASSAS*        N/A     57  56  96 CALM      29.82R

$$

MDZ006>007-011-014-271000-
BALTIMORE METRO

CITY           SKY/WX    TMP DP  RH WIND       PRES   REMARKS
BWI AIRPORT    MOCLDY    55  55 100 E3        29.82S FOG
MD SCIENCE CTR   N/A     59  55  87 MISG      29.83S
MARTIN STATE   PTCLDY    54  54 100 CALM      29.85S FOG
ANNAPOLIS      PTCLDY    59  59 100 E6        29.82S FOG
FORT MEADE*    CLOUDY    54  52  94 CALM      29.84S

$$

MDZ012-015-019>023-271000-
MARYLAND EASTERN SHORE

CITY           SKY/WX    TMP DP  RH WIND       PRES   REMARKS
OCEAN CITY     MOCLDY    53  52  96 CALM      29.85F FOG
SALISBURY      CLOUDY    55  55 100 E3        29.84S
BAY BRIDGE AP* CLEAR     57  57 100 E5        29.83S FOG
CAMBRIDGE*       N/A     55  55 100 SE7       29.82F
EASTON*        CLEAR     58  56  94 SE3       29.87S FOG

$$

MDZ017>025-271000-
SOUTHERN MARYLAND

CITY           SKY/WX    TMP DP  RH WIND       PRES   REMARKS
PATUXENT RIVER CLEAR     59  59 100 SE6       29.81S
ST INIGOES     CLEAR     59  57  93 E3        29.81S
LEONARDTOWN*   CLEAR     55  55 100 CALM      29.83S

$$

MDZ003>005-271000-
NORTH CENTRAL MARYLAND

CITY           SKY/WX    TMP DP  RH WIND       PRES   REMARKS
FREDERICK*     FOG       54  54 100 CALM      29.85R VSB 3/4
HAGERSTOWN APT CLEAR     59  56  89 CALM      29.80S
WESTMINSTER*   CLOUDY    57  57 100 SE6       29.83S FOG

$$

MDZ501>502-271000-
WESTERN MARYLAND

CITY           SKY/WX    TMP DP  RH WIND       PRES   REMARKS
OAKLAND*       CLEAR     57  54  88 S9        29.81S
CUMBERLAND*      N/A     55  55 100 CALM      29.82S VSB 1

$$

VAZ025>031-271000-
SHENANDOAH VALLEY

CITY           SKY/WX    TMP DP  RH WIND       PRES   REMARKS
WINCHESTER*    CLEAR     54  52  94 CALM      29.79S FOG
FRONT ROYAL*   CLEAR     55  55 100 CALM      29.78S
LURAY*         PTCLDY    54  54 100 CALM      29.79S FOG
NEW MARKET*    CLOUDY    52  51  97 CALM      29.79S VSB 1/4
STAUNTON*      CLEAR     54  54  99 CALM      29.82S
WAYNESBORO*    CLEAR     58  58 100 CALM      29.82R

$$

WVZ021-048>050-054>055-271000-
EASTERN WEST VIRGINIA PANHANDLE

CITY           SKY/WX    TMP DP  RH WIND       PRES   REMARKS
MARTINSBURG    CLOUDY    58  57  97 E3        29.79S FOG
PETERSBURG*    FOG       54  54  99 CALM      29.79R VSB 1/2

$$

VAZ036>039-050-271000-
CENTRAL FOOTHILLS

CITY           SKY/WX    TMP DP  RH WIND       PRES   REMARKS
CHARLOTTESVILL CLEAR     60  58  92 CALM      29.80R FOG
CULPEPER*      FOG       59  59 100 CALM      29.82S VSB 1/4
ORANGE*        FOG       54  54 100 CALM      29.80S VSB 1/2
GORDONSVILLE*  PTCLDY    54  54 100 CALM      29.80R FOG
WARRENTON*     CLOUDY    60  57  89 CALM      29.81R FOG

$$

VAZ055>057-271000-
NORTH AND CENTRAL PIEDMONT

CITY           SKY/WX    TMP DP  RH WIND       PRES   REMARKS
FREDERICKSBRG* PTCLDY    56  56 100 CALM      29.80S
STAFFORD*      FOG       52  52 100 CALM      29.85R VSB 1

$$

NCZ024-NYZ072-PAZ021-071-VAZ022-071-271000-
OTHER REGIONAL OBSERVATIONS

CITY           SKY/WX    TMP DP  RH WIND       PRES   REMARKS
NEW YORK CITY  CLOUDY    59  58  96 CALM      29.88S FOG
PITTSBURGH     PTCLDY    61  57  87 SE5       29.69S
ROANOKE        CLEAR     58  58 100 CALM      29.83S
RICHMOND       CLEAR     61  61 100 CALM      29.81S
RALEIGH        PTCLDY    64  58  80 SW9       29.87R

$$

ANZ530>537-271000-
MARINE OBSERVATIONS

STATION/POSITION TIME  TEMP    WIND        PRES
                       AIR SEA DIR/SP/G
                 (UTC) (F)     (DEG/KT/KT) (MB)
THOMAS PT LIGHT  0900   58 57   90/  5/  6   N/A
BALT KEY BRIDGE  0848   58      90/  5/  5 1010.0S
COVE POINT       0848   59     180/  8/ 10 1010.2S
LEWISETTA        0848   61 62  170/  5/  5 1009.3S
SOLOMONS ISLAND  0848   60 59  110/  6/  6   N/A
PINEY POINT      0848          140/  8/  9   N/A

$$




USA.gov is the U.S. government's official web portal to all federal, state and local government web resources and services.